EXS62YH EGNX-LGSK

Flight info

Callsign EXS62YH
Flight time N/A
Altitude 35000
Route SAPCO Y53 DTY M605 BENSU Q70 BIG UL9 KONAN DCT KOK DCT SISGA DCT RITAX DCT KRH DCT UTABA DCT MOMUK DCT UMVEG DCT VEKEN DCT NAVSU DCT SOLGU DCT RUDAR DCT OSLUD DCT MEDUX UM867 KOGAT DCT ERANA UL737 TSL UL617 IBIDI
Aircraft A21N/M-SDE3FGHIRWY/LB1

Departure

Time N/A
Airport East Midlands Airport (EGNX)

Arrival

Time 2026-05-06 18:44
Airport Skiathos Island National Airport (LGSK)
Time Latitude Longitude Altitude Speed Heading
2026-05-06 17:59 41.45893 21.87558 35036 ft 480 kts 139°
2026-05-06 17:59 41.43458 21.90571 35042 ft 480 kts 139°
2026-05-06 17:59 41.38569 21.96612 35031 ft 481 kts 139°
2026-05-06 18:00 41.33665 22.02652 35038 ft 481 kts 139°
2026-05-06 18:00 41.28765 22.08680 35045 ft 481 kts 139°
2026-05-06 18:01 41.23856 22.14706 35055 ft 481 kts 138°
2026-05-06 18:01 41.18956 22.20709 35058 ft 481 kts 138°
2026-05-06 18:02 41.13907 22.26545 35075 ft 480 kts 142°
2026-05-06 18:02 41.08711 22.32128 35079 ft 481 kts 142°
2026-05-06 18:03 41.03533 22.37680 35071 ft 481 kts 142°
2026-05-06 18:03 40.98308 22.43277 35068 ft 481 kts 142°
2026-05-06 18:04 40.93106 22.48841 35056 ft 482 kts 142°
2026-05-06 18:04 40.87911 22.54391 35046 ft 482 kts 142°
2026-05-06 18:05 40.82666 22.59981 35042 ft 482 kts 142°
2026-05-06 18:05 40.77393 22.65589 34970 ft 483 kts 143°
2026-05-06 18:06 40.74805 22.68338 34672 ft 482 kts 143°
2026-05-06 18:06 40.72179 22.71122 34379 ft 480 kts 143°
2026-05-06 18:06 40.69580 22.73877 34103 ft 477 kts 143°
2026-05-06 18:06 40.66996 22.76614 33828 ft 475 kts 143°
2026-05-06 18:07 40.64402 22.79356 33551 ft 475 kts 142°
2026-05-06 18:07 40.61809 22.82096 33276 ft 476 kts 142°
2026-05-06 18:07 40.59241 22.84808 32956 ft 477 kts 142°
2026-05-06 18:07 40.56637 22.87557 32461 ft 477 kts 142°
2026-05-06 18:08 40.54036 22.90298 31819 ft 479 kts 142°
2026-05-06 18:08 40.51454 22.93014 31110 ft 479 kts 142°
2026-05-06 18:08 40.48828 22.95733 30358 ft 480 kts 144°
2026-05-06 18:08 40.46068 22.98167 29561 ft 481 kts 150°
2026-05-06 18:09 40.43126 23.00250 28795 ft 481 kts 156°
2026-05-06 18:09 40.40023 23.01974 28021 ft 480 kts 161°
2026-05-06 18:09 40.36910 23.03526 27237 ft 481 kts 161°
2026-05-06 18:09 40.33814 23.05038 26430 ft 482 kts 161°
2026-05-06 18:10 40.30656 23.06577 25583 ft 484 kts 161°
2026-05-06 18:10 40.27473 23.08137 24715 ft 486 kts 161°
2026-05-06 18:10 40.24353 23.09671 23936 ft 486 kts 161°
2026-05-06 18:10 40.21179 23.11238 23352 ft 481 kts 160°
2026-05-06 18:11 40.18082 23.12769 22796 ft 477 kts 160°
2026-05-06 18:11 40.14975 23.14303 22229 ft 473 kts 160°
2026-05-06 18:11 40.11906 23.15819 21658 ft 469 kts 160°
2026-05-06 18:11 40.08884 23.17310 21098 ft 465 kts 160°
2026-05-06 18:12 40.05882 23.18790 20541 ft 461 kts 160°
2026-05-06 18:12 40.02878 23.20269 19971 ft 457 kts 160°
2026-05-06 18:12 39.99940 23.21714 19399 ft 454 kts 160°
2026-05-06 18:12 39.97000 23.23158 18832 ft 450 kts 160°
2026-05-06 18:13 39.94095 23.24584 18279 ft 446 kts 160°
2026-05-06 18:13 39.91172 23.26019 17708 ft 442 kts 160°
2026-05-06 18:13 39.88311 23.27420 17167 ft 438 kts 160°
2026-05-06 18:13 39.85481 23.28804 16636 ft 433 kts 160°
2026-05-06 18:14 39.82670 23.30179 16086 ft 429 kts 160°
2026-05-06 18:14 39.79906 23.31528 15550 ft 425 kts 160°
2026-05-06 18:14 39.77139 23.32880 14997 ft 421 kts 159°
2026-05-06 18:14 39.74432 23.34201 14456 ft 417 kts 159°
2026-05-06 18:15 39.71745 23.35511 13913 ft 413 kts 159°
2026-05-06 18:15 39.69070 23.36816 13375 ft 409 kts 159°
2026-05-06 18:15 39.66391 23.38121 12822 ft 405 kts 159°
2026-05-06 18:15 39.63799 23.39383 12277 ft 402 kts 159°
2026-05-06 18:16 39.61170 23.40661 11724 ft 398 kts 159°
2026-05-06 18:16 39.58622 23.41900 11362 ft 389 kts 159°
2026-05-06 18:16 39.56133 23.43108 11149 ft 375 kts 159°
2026-05-06 18:16 39.53721 23.44279 10937 ft 363 kts 159°
2026-05-06 18:17 39.51410 23.45400 10737 ft 351 kts 159°
2026-05-06 18:17 39.49164 23.46489 10527 ft 340 kts 159°
2026-05-06 18:17 39.46952 23.47560 10322 ft 329 kts 159°
2026-05-06 18:17 39.44858 23.48573 10203 ft 316 kts 159°
2026-05-06 18:18 39.42845 23.49546 10073 ft 304 kts 159°
2026-05-06 18:18 39.40877 23.50498 9808 ft 298 kts 159°
2026-05-06 18:18 39.38945 23.51438 9445 ft 296 kts 159°
2026-05-06 18:18 39.37035 23.52368 9101 ft 293 kts 159°
2026-05-06 18:19 39.35120 23.53301 8754 ft 291 kts 159°
2026-05-06 18:19 39.33230 23.54221 8400 ft 289 kts 159°
2026-05-06 18:19 39.31364 23.55129 8057 ft 286 kts 159°
2026-05-06 18:19 39.29515 23.56028 7750 ft 282 kts 159°
2026-05-06 18:20 39.27705 23.56908 7513 ft 275 kts 159°
2026-05-06 18:20 39.25936 23.57768 7238 ft 270 kts 159°
2026-05-06 18:20 39.24180 23.58620 6949 ft 266 kts 159°
2026-05-06 18:20 39.22465 23.59453 6669 ft 262 kts 160°
2026-05-06 18:21 39.20778 23.60271 6388 ft 258 kts 160°
2026-05-06 18:21 39.19115 23.61040 6109 ft 253 kts 166°
2026-05-06 18:21 39.17394 23.61093 5797 ft 247 kts 194°
2026-05-06 18:21 39.15822 23.60240 5512 ft 242 kts 207°
2026-05-06 18:22 39.14345 23.59236 5144 ft 237 kts 207°
2026-05-06 18:22 39.12911 23.58264 4765 ft 230 kts 207°
2026-05-06 18:22 39.11512 23.57329 4383 ft 222 kts 206°
2026-05-06 18:22 39.10180 23.56449 4147 ft 207 kts 206°
2026-05-06 18:23 39.08926 23.55625 3815 ft 197 kts 205°
2026-05-06 18:23 39.07755 23.54859 3619 ft 186 kts 204°
2026-05-06 18:23 39.06576 23.54092 3602 ft 188 kts 204°
2026-05-06 18:23 39.05409 23.53332 3562 ft 188 kts 204°
2026-05-06 18:24 39.04234 23.52568 3516 ft 188 kts 204°
2026-05-06 18:24 39.03078 23.51805 3405 ft 188 kts 208°
2026-05-06 18:24 39.02203 23.50568 3207 ft 192 kts 247°
2026-05-06 18:24 39.02170 23.48859 3057 ft 196 kts 286°
2026-05-06 18:25 39.02956 23.47456 2888 ft 196 kts 323°
2026-05-06 18:25 39.04098 23.46592 2740 ft 184 kts 335°
2026-05-06 18:25 39.05313 23.46394 2371 ft 172 kts 10°
2026-05-06 18:25 39.06463 23.46760 2164 ft 170 kts 19°
2026-05-06 18:26 39.07601 23.47180 1978 ft 169 kts 13°
2026-05-06 18:26 39.08718 23.47353 1799 ft 154 kts
2026-05-06 18:26 39.09766 23.47420 1585 ft 149 kts
2026-05-06 18:26 39.10793 23.47527 1395 ft 148 kts
2026-05-06 18:27 39.11810 23.47724 1194 ft 147 kts 13°
2026-05-06 18:27 39.12779 23.48096 995 ft 145 kts 21°
2026-05-06 18:27 39.13719 23.48555 759 ft 144 kts 22°
2026-05-06 18:27 39.14652 23.48997 517 ft 143 kts 20°
2026-05-06 18:28 39.15558 23.49395 327 ft 142 kts 19°
2026-05-06 18:28 39.16497 23.49821 152 ft 142 kts 18°
2026-05-06 18:28 39.17461 23.50250 399 ft 150 kts 19°
2026-05-06 18:28 39.18473 23.50718 947 ft 165 kts 22°
2026-05-06 18:29 39.19535 23.51401 1581 ft 179 kts 32°
2026-05-06 18:29 39.20582 23.52228 2384 ft 179 kts 43°
2026-05-06 18:29 39.21119 23.53639 2877 ft 185 kts 91°
2026-05-06 18:29 39.20733 23.55205 3476 ft 191 kts 118°
2026-05-06 18:30 39.20079 23.56787 4017 ft 208 kts 119°
2026-05-06 18:30 39.19366 23.58480 4497 ft 229 kts 119°
2026-05-06 18:30 39.18575 23.60344 5205 ft 241 kts 119°
2026-05-06 18:30 39.17776 23.62236 6051 ft 245 kts 118°
2026-05-06 18:31 39.16983 23.64193 6643 ft 250 kts 117°
2026-05-06 18:31 39.16190 23.66183 6956 ft 252 kts 117°
2026-05-06 18:31 39.15382 23.68208 6994 ft 253 kts 117°
2026-05-06 18:31 39.14578 23.70217 7009 ft 253 kts 117°
2026-05-06 18:32 39.13781 23.72202 7009 ft 253 kts 117°
2026-05-06 18:32 39.12964 23.74232 7013 ft 253 kts 117°
2026-05-06 18:32 39.12252 23.76277 6998 ft 254 kts 102°
2026-05-06 18:32 39.12367 23.78514 7000 ft 252 kts 66°
2026-05-06 18:33 39.13385 23.80285 7009 ft 250 kts 36°
2026-05-06 18:33 39.14980 23.81154 7009 ft 248 kts
2026-05-06 18:33 39.16663 23.80873 7008 ft 246 kts 335°
2026-05-06 18:33 39.18005 23.79547 7007 ft 245 kts 305°
2026-05-06 18:34 39.18647 23.77539 7002 ft 245 kts 276°
2026-05-06 18:34 39.18609 23.75336 7012 ft 245 kts 266°
2026-05-06 18:34 39.18502 23.73135 7012 ft 245 kts 267°
2026-05-06 18:34 39.18410 23.70964 7006 ft 245 kts 268°
2026-05-06 18:35 39.18325 23.68764 6997 ft 245 kts 268°
2026-05-06 18:35 39.18244 23.66569 7007 ft 245 kts 268°
2026-05-06 18:35 39.18165 23.64396 7012 ft 245 kts 268°
2026-05-06 18:35 39.18087 23.62195 7003 ft 244 kts 268°
2026-05-06 18:36 39.17900 23.60045 6989 ft 244 kts 252°
2026-05-06 18:36 39.16907 23.58294 6994 ft 246 kts 215°
2026-05-06 18:36 39.15312 23.57531 7004 ft 249 kts 185°
2026-05-06 18:36 39.13605 23.57887 7005 ft 251 kts 155°
2026-05-06 18:37 39.12259 23.59277 6957 ft 250 kts 126°
2026-05-06 18:37 39.11730 23.60626 6806 ft 256 kts 105°
2026-05-06 18:37 39.11892 23.63611 6485 ft 256 kts 65°
2026-05-06 18:37 39.12994 23.65395 6234 ft 255 kts 35°
2026-05-06 18:38 39.14598 23.66263 5994 ft 253 kts 11°
2026-05-06 18:38 39.16338 23.66615 5749 ft 252 kts
2026-05-06 18:38 39.18093 23.66868 5497 ft 251 kts
2026-05-06 18:38 39.19832 23.67022 5192 ft 252 kts 359°
2026-05-06 18:39 39.21582 23.66929 4801 ft 254 kts 356°
2026-05-06 18:39 39.23332 23.66599 4393 ft 255 kts 343°
2026-05-06 18:39 39.24992 23.65782 4021 ft 256 kts 337°
2026-05-06 18:40 39.28032 23.63491 3247 ft 257 kts 311°
2026-05-06 18:40 39.29153 23.61705 2904 ft 256 kts 307°
2026-05-06 18:40 39.30156 23.59839 2669 ft 246 kts 295°
2026-05-06 18:40 39.30407 23.57812 2454 ft 221 kts 255°
2026-05-06 18:41 39.29798 23.56165 2447 ft 190 kts 230°
2026-05-06 18:41 39.28866 23.55087 2257 ft 173 kts 210°
2026-05-06 18:41 39.27819 23.54460 1984 ft 161 kts 200°
2026-05-06 18:41 39.26815 23.53965 1748 ft 146 kts 198°
2026-05-06 18:42 39.25868 23.53574 1562 ft 143 kts 192°
2026-05-06 18:42 39.24889 23.53362 1432 ft 143 kts 187°
2026-05-06 18:42 39.23906 23.53127 1310 ft 143 kts 192°
2026-05-06 18:42 39.22949 23.52729 1152 ft 143 kts 199°
2026-05-06 18:43 39.22033 23.52269 916 ft 142 kts 199°
2026-05-06 18:43 39.21098 23.51846 686 ft 142 kts 198°
2026-05-06 18:43 39.20186 23.51457 463 ft 141 kts 199°
2026-05-06 18:43 39.19262 23.51047 241 ft 140 kts 199°
2026-05-06 18:44 39.18354 23.50647 76 ft 138 kts 200°
2026-05-06 18:44 39.17550 23.50287 31 ft 98 kts 199°
2026-05-06 18:44 39.17174 23.50120 20 ft 27 kts 199°
2026-05-06 18:44 39.17063 23.50058 20 ft 11 kts 220°
2026-05-06 18:45 39.17034 23.50051 20 ft 4 kts 69°
2026-05-06 18:45 39.17075 23.50072 20 ft 7 kts 20°
2026-05-06 18:45 39.17146 23.50106 20 ft 13 kts 20°
2026-05-06 18:45 39.17209 23.50135 20 ft 15 kts 19°
2026-05-06 18:46 39.17356 23.50200 24 ft 16 kts 20°
2026-05-06 18:46 39.17466 23.50249 28 ft 16 kts 19°
2026-05-06 18:46 39.17576 23.50298 32 ft 16 kts 19°
2026-05-06 18:46 39.17675 23.50334 36 ft 10 kts 351°
2026-05-06 18:47 39.17717 23.50276 41 ft 6 kts 309°
2026-05-06 18:47 39.17761 23.50258 41 ft 7 kts
2026-05-06 18:47 39.17813 23.50280 42 ft 8 kts 19°
2026-05-06 18:47 39.17865 23.50301 42 ft 6 kts 20°
2026-05-06 18:48 39.17896 23.50284 43 ft 6 kts 301°
2026-05-06 18:48 39.17910 23.50239 43 ft 3 kts 288°
2026-05-06 18:48 39.17911 23.50234 43 ft 0 kts 288°